Weather History for Eau Claire, WI

Change the Weather History Date:

Friday, May 16, 2014

  Actual Average Record
Temperature  
Mean Temperature 42 °F 58 °F  
Max Temperature 53 °F 70 °F 92 °F (1936)
Min Temperature 30 °F 45 °F 28 °F (1956)
Degree Days  
Heating Degree Days 23 8  
Month to date heating degree days 203 162  
Since 1 July heating degree days 9089 7803  
Cooling Degree Days 0 1  
Month to date cooling degree days 0 10  
Year to date cooling degree days 0 14  
Moisture  
Dew Point 28 °F    
Average Humidity 62    
Maximum Humidity 89    
Minimum Humidity 34    
Precipitation  
Precipitation T in 0.12 in 1.50 in (1960)
Month to date precipitation 1.74 1.73  
Year to date precipitation 11.76 7.91  
Snow  
Snow 0.00 in 0.00 in T in (1916)
Month to date snowfall 0.0 0.2  
Since 1 July snowfall 74.8 47.0  
Snow Depth 0.00 in    
Sea Level Pressure  
Sea Level Pressure 30.06 in    
Wind  
Wind Speed 5 mph (West)    
Max Wind Speed 18 mph    
Max Gust Speed 20 mph    
Visibility 10 miles    
Events Rain    
T = Trace of Precipitation, MM = Missing Value Source: NWS Daily Summary

Daily Weather History Graph

Daily Weather History Graph

Search for Another Location

Airport:

Trip Planner

Search our weather history database for the weather conditions in past years. The results will help you decide how hot, cold, wet, or windy it might be!

Date:

Astronomy

May. 16, 2014 Rise Set
Actual Time 5:36 AM CDT 8:29 PM CDT
Civil Twilight 5:01 AM CDT 9:03 PM CDT
Nautical Twilight 4:18 AM CDT 9:47 PM CDT
Astronomical Twilight 3:27 AM CDT 10:38 PM CDT
Moon 10:36 PM CDT (5/16) 7:18 AM CDT (5/16)
Length of Visible Light 16h 01m
Length of Day
14h 52m
Waning Gibbous, 95% of the Moon is Illuminated
May 16
Waning Gibbous
May 21
Last Quarter
May 28
New
Jun 5
First Quarter
Jun 12
Full

Hourly Weather History & Observations

Time (CDT) Temp. Windchill Dew Point Humidity Pressure Visibility Wind Dir Wind Speed Gust Speed Precip Events Conditions
12:56 AM 42.1 °F - 28.0 °F 58% 30.10 in 10.0 mi Calm Calm - N/A   Overcast
1:56 AM 39.0 °F - 28.0 °F 65% 30.09 in 10.0 mi Calm Calm - N/A   Mostly Cloudy
2:56 AM 37.0 °F - 27.0 °F 67% 30.09 in 10.0 mi Calm Calm - N/A   Partly Cloudy
3:56 AM 34.0 °F - 28.0 °F 79% 30.08 in 10.0 mi Calm Calm - N/A   Clear
4:56 AM 30.9 °F - 27.0 °F 85% 30.07 in 10.0 mi Calm Calm - N/A   Clear
5:56 AM 33.1 °F 28.7 °F 30.9 °F 92% 30.07 in 10.0 mi West 4.6 mph - N/A   Overcast
6:56 AM 37.0 °F - 33.1 °F 86% 30.07 in 10.0 mi Calm Calm - N/A   Overcast
7:56 AM 41.0 °F 38.0 °F 33.1 °F 73% 30.07 in 10.0 mi WSW 4.6 mph - N/A   Overcast
8:56 AM 45.0 °F 41.2 °F 34.0 °F 65% 30.07 in 10.0 mi West 6.9 mph - N/A   Mostly Cloudy
9:56 AM 48.9 °F - 21.9 °F 35% 30.05 in 10.0 mi NW 8.1 mph - N/A   Mostly Cloudy
10:56 AM 46.9 °F - 25.0 °F 42% 30.06 in 10.0 mi WNW 8.1 mph - N/A   Overcast
11:56 AM 48.9 °F - 26.1 °F 41% 30.05 in 10.0 mi West 8.1 mph - N/A   Overcast
12:56 PM 46.9 °F - 27.0 °F 46% 30.05 in 10.0 mi WNW 10.4 mph - N/A   Overcast
1:56 PM 51.1 °F - 25.0 °F 36% 30.04 in 10.0 mi North 8.1 mph 17.3 mph N/A   Overcast
3:56 PM 48.0 °F - 28.9 °F 48% 30.05 in 10.0 mi North - - 0.00 in Rain Light Rain
4:56 PM 50.0 °F - 28.9 °F 44% 30.04 in 10.0 mi Variable 4.6 mph - 0.00 in   Mostly Cloudy
5:56 PM 51.1 °F - 25.0 °F 36% 30.04 in 10.0 mi WSW 8.1 mph - N/A   Overcast
6:56 PM 50.0 °F - 24.1 °F 36% 30.03 in 10.0 mi WSW 8.1 mph - N/A   Overcast
7:56 PM 48.9 °F - 25.0 °F 39% 30.04 in 10.0 mi West 6.9 mph - N/A   Scattered Clouds
8:56 PM 46.0 °F 44.8 °F 26.1 °F 46% 30.05 in 10.0 mi West 3.5 mph - N/A   Partly Cloudy
9:56 PM 45.0 °F 43.5 °F 28.9 °F 53% 30.06 in 10.0 mi West 3.5 mph - N/A   Overcast
10:56 PM 42.1 °F 40.2 °F 28.9 °F 60% 30.05 in 10.0 mi WSW 3.5 mph - N/A   Clear
11:56 PM 39.9 °F - 28.9 °F 65% 30.05 in 10.0 mi Calm Calm - N/A   Scattered Clouds